This demonstration page uses our WeatherBlox Daily Observations layout. Learn more.

Hourly Observations for June 10, 2018

Temp ( °F °C ) Dew Point ( °F °C ) Humidity (%) Winds ( mph kmh ) Pressure ( in mb ) Visibility ( mi km ) Precip ( " mm )
12:15 am 00:15 Clear 78 25.7 64 17.5 61 61 SE 12 19 29.65 1004 10 16.09344 0 0
12:35 am 00:35 Clear 77 24.9 64 17.6 64 64 SE 12 19 29.65 1004 10 16.09344 0 0
12:55 am 00:55 Clear 76 24.4 64 17.8 67 67 SE 10 17 29.68 1005 10 16.09344 0 0
1:15 am 01:15 Clear 76 24.5 64 18 67 67 SSE 10 17 29.62 1003 10 16.09344 0 0
1:35 am 01:35 Clear 77 25 64 18 65 65 S 13 20 29.62 1003 10 16.09344 0 0
1:55 am 01:55 Clear 77 24.9 64 18 66 66 S 13 20 29.62 1003 10 16.09344 0 0
2:15 am 02:15 Clear 76 24.5 64 18 67 67 SSE 14 22 29.62 1003 10 16.09344 0 0
2:35 am 02:35 Clear 75 24.1 64 18 69 69 SSE 10 17 29.65 1004 10 16.09344 0 0
2:55 am 02:55 Clear 75 23.7 64 18 71 71 SSE 9 15 29.65 1004 10 16.09344 0 0
3:15 am 03:15 Clear 74 23.3 64 17.9 72 72 SSE 10 17 29.65 1004 10 16.09344 0 0
3:35 am 03:35 Clear 74 23.4 64 17.7 70 70 SSE 10 17 29.65 1004 10 16.09344 0 0
3:55 am 03:55 Clear 74 23.5 64 17.5 69 69 SSE 10 17 29.65 1004 10 16.09344 0 0
4:15 am 04:15 Clear 74 23.4 63 17.3 69 69 SSE 12 19 29.65 1004 10 16.09344 0 0
4:35 am 04:35 Clear 74 23.1 63 17.1 69 69 S 10 17 29.65 1004 10 16.09344 0 0
4:55 am 04:55 Clear 73 22.9 63 17.1 70 70 S 10 17 29.65 1004 10 16.09344 0 0
5:15 am 05:15 Clear 73 22.5 63 17.1 72 72 S 12 19 29.62 1003 10 16.09344 0 0
5:35 am 05:35 Clear 73 22.7 63 17 70 70 S 13 20 29.62 1003 10 16.09344 0 0
5:55 am 05:55 Clear 73 22.5 63 17 71 71 S 13 20 29.62 1003 10 16.09344 0 0
6:15 am 06:15 Sunny 72 22.3 63 17 72 72 S 13 20 29.62 1003 10 16.09344 0 0
6:35 am 06:35 Sunny 71 21.8 63 17.1 75 75 SSE 9 15 29.65 1004 10 16.09344 0 0
6:55 am 06:55 Sunny 70 21.2 64 17.5 80 80 SE 8 13 29.65 1004 10 16.09344 0 0
7:15 am 07:15 Sunny 71 21.7 64 17.7 78 78 SSE 9 15 29.65 1004 10 16.09344 0 0
7:35 am 07:35 Sunny 73 22.5 64 18 76 76 SSE 10 17 29.65 1004 10 16.09344 0 0
7:55 am 07:55 Sunny 74 23.4 64 18 72 72 SSE 12 19 29.65 1004 10 16.09344 0 0
8:15 am 08:15 Sunny 75 24 64 18 69 69 S 12 19 29.59 1002 10 16.09344 0 0
8:35 am 08:35 Sunny 77 25 64 18 65 65 S 14 22 29.59 1002 10 16.09344 0 0
8:55 am 08:55 Sunny 78 25.8 64 17.8 61 61 S 15 24 29.59 1002 10 16.09344 0 0
9:15 am 09:15 Sunny 80 26.4 64 17.8 59 59 S 15 24 29.59 1002 10 16.09344 0 0
9:35 am 09:35 Sunny 80 26.7 64 18 59 59 S 13 20 29.59 1002 10 16.09344 0 0
9:55 am 09:55 Sunny 81 27.2 65 18.1 58 58 S 12 19 29.59 1002 10 16.09344 0 0
10:15 am 10:15 Sunny 82 28 65 18.1 55 55 S 12 19 29.56 1001 10 16.09344 0 0
10:35 am 10:35 Sunny 83 28.4 65 18.1 54 54 S 12 19 29.56 1001 10 16.09344 0 0
10:55 am 10:55 Sunny 84 28.8 64 18 52 52 S 12 19 29.56 1001 10 16.09344 0 0
11:15 am 11:15 Sunny 84 29 65 18.6 53 53 SE 8 13 29.56 1001 10 16.09344 0 0
11:35 am 11:35 Sunny 85 29.5 66 18.8 53 53 SSE 12 19 29.56 1001 10 16.09344 0 0
11:55 am 11:55 Sunny 85 29.7 66 19 53 53 SSE 13 20 29.56 1001 10 16.09344 0 0
12:15 pm 12:15 Sunny 87 30.3 66 18.7 50 50 SSE 16 26 29.53 1000 10 16.09344 0 0
12:35 pm 12:35 Sunny 88 31 65 18.5 47 47 SSE 17 28 29.53 1000 10 16.09344 0 0
12:55 pm 12:55 Sunny 89 31.5 65 18.5 46 46 SSE 16 26 29.5 999 10 16.09344 0 0
1:15 pm 13:15 Sunny 90 32.4 65 18.1 43 43 SSE 17 28 29.5 999 10 16.09344 0 0
1:35 pm 13:35 Sunny 91 33 64 17.6 40 40 S 18 30 29.5 999 10 16.09344 0 0
1:55 pm 13:55 Sunny 93 33.7 62 16.9 37 37 SSE 18 30 29.47 998 10 16.09344 0 0
2:15 pm 14:15 Sunny 94 34.3 63 17.1 36 36 S 22 35 29.47 998 10 16.09344 0 0
2:35 pm 14:35 Sunny 94 34.7 62 16.5 34 34 S 23 37 29.47 998 10 16.09344 0 0
2:55 pm 14:55 Sunny 95 34.8 62 16.6 34 34 S 21 33 29.41 996 10 16.09344 0 0
3:15 pm 15:15 Sunny 95 35.1 61 16.3 33 33 S 22 35 29.41 996 10 16.09344 0 0
3:35 pm 15:35 Sunny 95 35.2 61 16.3 32 32 SSE 25 41 29.41 996 10 16.09344 0 0
3:55 pm 15:55 Sunny 95 35 61 16.2 33 33 S 24 39 29.41 996 10 16.09344 0 0
4:15 pm 16:15 Sunny 95 35.2 61 16.1 32 32 S 24 39 29.41 996 10 16.09344 0 0
4:35 pm 16:35 Sunny 96 35.4 59 15.1 30 30 S 22 35 29.41 996 10 16.09344 0 0
4:55 pm 16:55 Sunny 94 34.2 59 15.1 32 32 S 21 33 29.44 997 10 16.09344 0 0
5:15 pm 17:15 Sunny 93 33.8 61 16.3 35 35 S 18 30 29.41 996 10 16.09344 0 0
5:35 pm 17:35 Sunny 93 33.8 62 16.7 36 36 S 15 24 29.41 996 10 16.09344 0 0
5:55 pm 17:55 Sunny 92 33.5 63 17 37 37 S 16 26 29.41 996 10 16.09344 0 0
6:15 pm 18:15 Sunny 92 33.3 63 17.3 38 38 S 15 24 29.41 996 10 16.09344 0 0
6:35 pm 18:35 Sunny 93 33.7 64 17.5 38 38 SSE 16 26 29.41 996 10 16.09344 0 0
6:55 pm 18:55 Sunny 93 33.7 63 17.1 37 37 S 15 24 29.41 996 10 16.09344 0 0
7:15 pm 19:15 Sunny 93 34 62 16.9 36 36 S 17 28 29.41 996 10 16.09344 0 0
7:35 pm 19:35 Sunny 92 33.6 62 16.5 36 36 SSE 16 26 29.41 996 10 16.09344 0 0
7:55 pm 19:55 Sunny 91 32.7 62 16.8 39 39 SSE 16 26 29.41 996 10 16.09344 0 0
8:15 pm 20:15 Sunny 90 32 62 16.5 39 39 SSE 14 22 29.41 996 10 16.09344 0 0
8:35 pm 20:35 Sunny 88 31 61 16.2 41 41 SSE 14 22 29.41 996 10 16.09344 0 0
8:55 pm 20:55 Sunny 87 30.3 62 16.5 43 43 SSE 13 20 29.44 997 10 16.09344 0 0
9:15 pm 21:15 Clear 85 29.5 61 16.3 45 45 SSE 13 20 29.44 997 10 16.09344 0 0
9:35 pm 21:35 Clear 84 28.9 61 16.1 46 46 SSE 13 20 29.44 997 10 16.09344 0 0
9:55 pm 21:55 Clear 83 28.5 61 16.2 47 47 SSE 16 26 29.44 997 10 16.09344 0 0
10:15 pm 22:15 Clear 83 28.2 61 16.2 48 48 SSE 15 24 29.47 998 10 16.09344 0 0
10:35 pm 22:35 Clear 82 27.8 61 16.1 49 49 SSE 14 22 29.47 998 10 16.09344 0 0
10:55 pm 22:55 Clear 82 27.6 61 16 49 49 SSE 14 22 29.47 998 10 16.09344 0 0
11:15 pm 23:15 Clear 82 27.5 60 15.8 49 49 SSE 14 22 29.47 998 10 16.09344 0 0
11:35 pm 23:35 Clear 82 27.5 60 15.6 48 48 SSE 16 26 29.47 998 10 16.09344 0 0
11:55 pm 23:55 Clear 81 27.1 60 15.7 50 50 SSE 17 28 29.44 997 10 16.09344 0 0

Powered by AerisWeather